Mackall AAF, NC

4:47 AM EDT on May 30, 2017 (GMT -0400)
Mackall Army Air Field

Weather History for KHFF - June, 2013

Change the Weather History Date:

Thursday, June 20, 2013

  Actual Average Record
Temperature  
Mean Temperature 74 °F -  
Max Temperature 84 °F 85 °F 96 °F (2011)
Min Temperature 63 °F 68 °F 57 °F (2016)
Cooling Degree Days 8    
Growing Degree Days 24 (Base 50)    
Moisture  
Dew Point 62 °F    
Average Humidity 70    
Maximum Humidity 96    
Minimum Humidity 40    
Precipitation  
Precipitation 0.00 in - - ()
Sea Level Pressure  
Sea Level Pressure 30.20 in    
Wind  
Wind Speed 5 mph (NE)    
Max Wind Speed 12 mph    
Max Gust Speed 17 mph    
Visibility 10 miles    
Events      
Averages and records for this station are not official NWS values.
T = Trace of Precipitation, MM = Missing Value Source: NWS Daily Summary

Daily Weather History Graph

Daily Weather History Graph

Search for Another Location

Airport or City:

Trip Planner

Search our weather history database for the weather conditions in past years. The results will help you decide how hot, cold, wet, or windy it might be!

Date:

Astronomy

Jun. 20, 2013 Rise Set
Actual Time 6:04 AM EDT 8:35 PM EDT
Civil Twilight 5:34 AM EDT 9:04 PM EDT
Nautical Twilight 4:57 AM EDT 9:41 PM EDT
Astronomical Twilight 4:16 AM EDT 10:22 PM EDT
Moon 5:39 PM EDT (6/20) 3:24 AM EDT (6/20)
Length of Visible Light 15h 30m
Length of Day
14h 31m
Waxing Gibbous, 89% of the Moon is Illuminated
Jun 20
Waxing Gibbous
Jun 23
Full
Jun 30
Last Quarter
Jul 8
New
Jul 15
First Quarter

Hourly Weather History & Observations

Time (EDT) Temp. Heat Index Dew Point Humidity Pressure Visibility Wind Dir Wind Speed Gust Speed Precip Events Conditions
12:56 AM 70.3 °F - 65.7 °F 85% 30.13 in 7.0 mi NE 3.5 mph - N/A   Scattered Clouds
1:56 AM 68.7 °F - 65.5 °F 89% 30.14 in 12.0 mi ENE 3.5 mph - N/A   Clear
2:56 AM 66.7 °F - 64.6 °F 93% 30.14 in 8.0 mi NE 3.5 mph - N/A   Clear
3:56 AM 66.0 °F - 64.0 °F 93% 30.15 in 7.0 mi NE 3.5 mph - N/A   Clear
4:56 AM 65.7 °F - 63.7 °F 93% 30.15 in 9.0 mi ENE 3.5 mph - N/A   Clear
5:56 AM 63.9 °F - 62.6 °F 96% 30.17 in 4.0 mi North 5.8 mph - N/A   Clear
6:56 AM 65.1 °F - 63.7 °F 95% 30.19 in 6.0 mi NE 5.8 mph - N/A   Partly Cloudy
7:56 AM 67.5 °F - 64.0 °F 89% 30.22 in 12.0 mi NNE 8.1 mph - N/A   Clear
8:56 AM 70.9 °F - 61.7 °F 73% 30.23 in 12.0 mi NE 10.4 mph - N/A   Clear
9:56 AM 74.7 °F - 61.2 °F 63% 30.23 in 12.0 mi ENE 8.1 mph - N/A   Clear
10:55 AM 77.0 °F - 59.0 °F 54% 30.23 in 12.0 mi NE 8.1 mph 15.0 mph N/A   Clear
11:55 AM 78.8 °F - 60.8 °F 54% 30.23 in 12.0 mi ENE 11.5 mph - N/A   Clear
12:54 PM 80.6 °F 81.5 °F 60.8 °F 51% 30.23 in 12.0 mi Variable 4.6 mph 15.0 mph N/A   Clear
1:54 PM 82.4 °F 82.5 °F 59.0 °F 45% 30.22 in 12.0 mi NE 9.2 mph 17.3 mph N/A   Clear
2:54 PM 84.2 °F 83.5 °F 57.2 °F 40% 30.22 in 12.0 mi ENE 8.1 mph 15.0 mph N/A   Clear
3:55 PM 84.2 °F 83.8 °F 59.0 °F 42% 30.21 in 12.0 mi East 9.2 mph 13.8 mph N/A   Clear
4:55 PM 84.2 °F 83.5 °F 57.2 °F 40% 30.20 in 12.0 mi East 6.9 mph - N/A   Clear
8:56 PM 74.5 °F - 62.6 °F 66% 30.21 in 12.0 mi NE 4.6 mph - N/A   Clear
9:56 PM 71.8 °F - 62.6 °F 73% 30.21 in 12.0 mi NE 4.6 mph - N/A   Clear
10:56 PM 72.0 °F - 61.7 °F 70% 30.23 in 12.0 mi NE 4.6 mph - N/A   Clear
11:56 PM 70.9 °F - 59.9 °F 68% 30.23 in 12.0 mi NE 5.8 mph - N/A   Clear